datum,uhrzeit_start,uhrzeit_ende,zaehlstelle,richtung_1,richtung_2,gesamt
2022.07.01,00:00,00:15,Arnulf,9,0,9
2022.07.01,00:15,00:30,Arnulf,1,0,1
2022.07.01,00:30,00:45,Arnulf,4,2,6
2022.07.01,00:45,01:00,Arnulf,4,0,4
2022.07.01,01:00,01:15,Arnulf,2,0,2
2022.07.01,01:15,01:30,Arnulf,0,0,0
2022.07.01,01:30,01:45,Arnulf,0,0,0
2022.07.01,01:45,02:00,Arnulf,0,0,0
2022.07.01,02:00,02:15,Arnulf,0,0,0
2022.07.01,02:15,02:30,Arnulf,0,0,0
2022.07.01,02:30,02:45,Arnulf,1,0,1
2022.07.01,02:45,03:00,Arnulf,4,2,6
2022.07.01,03:00,03:15,Arnulf,0,0,0
2022.07.01,03:15,03:30,Arnulf,1,0,1
2022.07.01,03:30,03:45,Arnulf,0,0,0
2022.07.01,03:45,04:00,Arnulf,0,0,0
2022.07.01,04:00,04:15,Arnulf,2,1,3
2022.07.01,04:15,04:30,Arnulf,1,0,1
2022.07.01,04:30,04:45,Arnulf,2,2,4
2022.07.01,04:45,05:00,Arnulf,2,0,2
2022.07.01,05:00,05:15,Arnulf,0,1,1
2022.07.01,05:15,05:30,Arnulf,3,0,3
2022.07.01,05:30,05:45,Arnulf,3,0,3
2022.07.01,05:45,06:00,Arnulf,2,0,2
2022.07.01,06:00,06:15,Arnulf,9,0,9
2022.07.01,06:15,06:30,Arnulf,7,1,8
2022.07.01,06:30,06:45,Arnulf,13,1,14
2022.07.01,06:45,07:00,Arnulf,10,1,11
2022.07.01,07:00,07:15,Arnulf,12,2,14
2022.07.01,07:15,07:30,Arnulf,19,1,20
2022.07.01,07:30,07:45,Arnulf,22,1,23
2022.07.01,07:45,08:00,Arnulf,25,0,25
2022.07.01,08:00,08:15,Arnulf,42,0,42
2022.07.01,08:15,08:30,Arnulf,33,0,33
2022.07.01,08:30,08:45,Arnulf,30,1,31
2022.07.01,08:45,09:00,Arnulf,29,0,29
2022.07.01,09:00,09:15,Arnulf,34,0,34
2022.07.01,09:15,09:30,Arnulf,22,0,22
2022.07.01,09:30,09:45,Arnulf,18,0,18
2022.07.01,09:45,10:00,Arnulf,21,0,21
2022.07.01,10:00,10:15,Arnulf,13,0,13
2022.07.01,10:15,10:30,Arnulf,18,1,19
2022.07.01,10:30,10:45,Arnulf,11,1,12
2022.07.01,10:45,11:00,Arnulf,8,1,9
2022.07.01,11:00,11:15,Arnulf,6,0,6
2022.07.01,11:15,11:30,Arnulf,8,0,8
2022.07.01,11:30,11:45,Arnulf,6,0,6
2022.07.01,11:45,12:00,Arnulf,11,0,11
2022.07.01,12:00,12:15,Arnulf,12,0,12
2022.07.01,12:15,12:30,Arnulf,12,0,12
2022.07.01,12:30,12:45,Arnulf,11,0,11
2022.07.01,12:45,13:00,Arnulf,6,1,7
2022.07.01,13:00,13:15,Arnulf,14,2,16
2022.07.01,13:15,13:30,Arnulf,11,0,11
2022.07.01,13:30,13:45,Arnulf,6,2,8
2022.07.01,13:45,14:00,Arnulf,13,3,16
2022.07.01,14:00,14:15,Arnulf,9,1,10
2022.07.01,14:15,14:30,Arnulf,10,3,13
2022.07.01,14:30,14:45,Arnulf,19,3,22
2022.07.01,14:45,15:00,Arnulf,15,0,15
2022.07.01,15:00,15:15,Arnulf,11,1,12
2022.07.01,15:15,15:30,Arnulf,17,2,19
2022.07.01,15:30,15:45,Arnulf,12,0,12
2022.07.01,15:45,16:00,Arnulf,14,1,15
2022.07.01,16:00,16:15,Arnulf,11,0,11
2022.07.01,16:15,16:30,Arnulf,12,2,14
2022.07.01,16:30,16:45,Arnulf,13,4,17
2022.07.01,16:45,17:00,Arnulf,14,0,14
2022.07.01,17:00,17:15,Arnulf,16,0,16
2022.07.01,17:15,17:30,Arnulf,18,2,20
2022.07.01,17:30,17:45,Arnulf,19,0,19
2022.07.01,17:45,18:00,Arnulf,21,2,23
2022.07.01,18:00,18:15,Arnulf,20,1,21
2022.07.01,18:15,18:30,Arnulf,20,0,20
2022.07.01,18:30,18:45,Arnulf,13,1,14
2022.07.01,18:45,19:00,Arnulf,16,1,17
2022.07.01,19:00,19:15,Arnulf,14,0,14
2022.07.01,19:15,19:30,Arnulf,14,0,14
2022.07.01,19:30,19:45,Arnulf,18,2,20
2022.07.01,19:45,20:00,Arnulf,16,0,16
2022.07.01,20:00,20:15,Arnulf,12,1,13
2022.07.01,20:15,20:30,Arnulf,12,1,13
2022.07.01,20:30,20:45,Arnulf,3,1,4
2022.07.01,20:45,21:00,Arnulf,13,0,13
2022.07.01,21:00,21:15,Arnulf,3,0,3
2022.07.01,21:15,21:30,Arnulf,9,1,10
2022.07.01,21:30,21:45,Arnulf,5,0,5
2022.07.01,21:45,22:00,Arnulf,11,2,13
2022.07.01,22:00,22:15,Arnulf,8,0,8
2022.07.01,22:15,22:30,Arnulf,3,0,3
2022.07.01,22:30,22:45,Arnulf,4,0,4
2022.07.01,22:45,23:00,Arnulf,4,2,6
2022.07.01,23:00,23:15,Arnulf,8,0,8
2022.07.01,23:15,23:30,Arnulf,7,2,9
2022.07.01,23:30,23:45,Arnulf,2,2,4
2022.07.01,23:45,00:00,Arnulf,6,0,6
2022.07.02,00:00,00:15,Arnulf,9,1,10
2022.07.02,00:15,00:30,Arnulf,6,1,7
2022.07.02,00:30,00:45,Arnulf,1,0,1
2022.07.02,00:45,01:00,Arnulf,2,1,3
2022.07.02,01:00,01:15,Arnulf,2,0,2
2022.07.02,01:15,01:30,Arnulf,1,0,1
2022.07.02,01:30,01:45,Arnulf,4,1,5
2022.07.02,01:45,02:00,Arnulf,3,1,4
2022.07.02,02:00,02:15,Arnulf,2,0,2
2022.07.02,02:15,02:30,Arnulf,2,0,2
2022.07.02,02:30,02:45,Arnulf,0,0,0
2022.07.02,02:45,03:00,Arnulf,2,0,2
2022.07.02,03:00,03:15,Arnulf,1,0,1
2022.07.02,03:15,03:30,Arnulf,1,0,1
2022.07.02,03:30,03:45,Arnulf,5,0,5
2022.07.02,03:45,04:00,Arnulf,3,0,3
2022.07.02,04:00,04:15,Arnulf,0,0,0
2022.07.02,04:15,04:30,Arnulf,3,0,3
2022.07.02,04:30,04:45,Arnulf,5,0,5
2022.07.02,04:45,05:00,Arnulf,1,0,1
2022.07.02,05:00,05:15,Arnulf,2,0,2
2022.07.02,05:15,05:30,Arnulf,6,0,6
2022.07.02,05:30,05:45,Arnulf,4,1,5
2022.07.02,05:45,06:00,Arnulf,5,0,5
2022.07.02,06:00,06:15,Arnulf,3,1,4
2022.07.02,06:15,06:30,Arnulf,2,0,2
2022.07.02,06:30,06:45,Arnulf,3,0,3
2022.07.02,06:45,07:00,Arnulf,3,1,4
2022.07.02,07:00,07:15,Arnulf,6,0,6
2022.07.02,07:15,07:30,Arnulf,8,1,9
2022.07.02,07:30,07:45,Arnulf,5,1,6
2022.07.02,07:45,08:00,Arnulf,6,1,7
2022.07.02,08:00,08:15,Arnulf,5,0,5
2022.07.02,08:15,08:30,Arnulf,10,2,12
2022.07.02,08:30,08:45,Arnulf,14,1,15
2022.07.02,08:45,09:00,Arnulf,20,0,20
2022.07.02,09:00,09:15,Arnulf,19,1,20
2022.07.02,09:15,09:30,Arnulf,13,1,14
2022.07.02,09:30,09:45,Arnulf,19,1,20
2022.07.02,09:45,10:00,Arnulf,26,1,27
2022.07.02,10:00,10:15,Arnulf,16,3,19
2022.07.02,10:15,10:30,Arnulf,29,0,29
2022.07.02,10:30,10:45,Arnulf,26,1,27
2022.07.02,10:45,11:00,Arnulf,23,1,24
2022.07.02,11:00,11:15,Arnulf,24,0,24
2022.07.02,11:15,11:30,Arnulf,20,0,20
2022.07.02,11:30,11:45,Arnulf,21,0,21
2022.07.02,11:45,12:00,Arnulf,10,0,10
2022.07.02,12:00,12:15,Arnulf,15,0,15
2022.07.02,12:15,12:30,Arnulf,31,0,31
2022.07.02,12:30,12:45,Arnulf,18,0,18
2022.07.02,12:45,13:00,Arnulf,19,3,22
2022.07.02,13:00,13:15,Arnulf,14,0,14
2022.07.02,13:15,13:30,Arnulf,20,2,22
2022.07.02,13:30,13:45,Arnulf,33,1,34
2022.07.02,13:45,14:00,Arnulf,33,2,35
2022.07.02,14:00,14:15,Arnulf,21,0,21
2022.07.02,14:15,14:30,Arnulf,26,1,27
2022.07.02,14:30,14:45,Arnulf,28,2,30
2022.07.02,14:45,15:00,Arnulf,22,0,22
2022.07.02,15:00,15:15,Arnulf,35,1,36
2022.07.02,15:15,15:30,Arnulf,36,0,36
2022.07.02,15:30,15:45,Arnulf,26,0,26
2022.07.02,15:45,16:00,Arnulf,38,0,38
2022.07.02,16:00,16:15,Arnulf,32,2,34
2022.07.02,16:15,16:30,Arnulf,27,1,28
2022.07.02,16:30,16:45,Arnulf,25,1,26
2022.07.02,16:45,17:00,Arnulf,21,1,22
2022.07.02,17:00,17:15,Arnulf,29,1,30
2022.07.02,17:15,17:30,Arnulf,26,2,28
2022.07.02,17:30,17:45,Arnulf,23,5,28
2022.07.02,17:45,18:00,Arnulf,36,0,36
2022.07.02,18:00,18:15,Arnulf,24,1,25
2022.07.02,18:15,18:30,Arnulf,30,4,34
2022.07.02,18:30,18:45,Arnulf,30,0,30
2022.07.02,18:45,19:00,Arnulf,41,1,42
2022.07.02,19:00,19:15,Arnulf,22,0,22
2022.07.02,19:15,19:30,Arnulf,26,1,27
2022.07.02,19:30,19:45,Arnulf,23,0,23
2022.07.02,19:45,20:00,Arnulf,19,1,20
2022.07.02,20:00,20:15,Arnulf,17,1,18
2022.07.02,20:15,20:30,Arnulf,23,4,27
2022.07.02,20:30,20:45,Arnulf,14,0,14
2022.07.02,20:45,21:00,Arnulf,15,0,15
2022.07.02,21:00,21:15,Arnulf,10,1,11
2022.07.02,21:15,21:30,Arnulf,15,1,16
2022.07.02,21:30,21:45,Arnulf,17,2,19
2022.07.02,21:45,22:00,Arnulf,17,0,17
2022.07.02,22:00,22:15,Arnulf,17,0,17
2022.07.02,22:15,22:30,Arnulf,22,1,23
2022.07.02,22:30,22:45,Arnulf,9,0,9
2022.07.02,22:45,23:00,Arnulf,17,5,22
2022.07.02,23:00,23:15,Arnulf,9,2,11
2022.07.02,23:15,23:30,Arnulf,14,1,15
2022.07.02,23:30,23:45,Arnulf,20,0,20
2022.07.02,23:45,00:00,Arnulf,12,0,12
2022.07.03,00:00,00:15,Arnulf,6,1,7
2022.07.03,00:15,00:30,Arnulf,16,0,16
2022.07.03,00:30,00:45,Arnulf,10,0,10
2022.07.03,00:45,01:00,Arnulf,6,1,7
2022.07.03,01:00,01:15,Arnulf,3,2,5
2022.07.03,01:15,01:30,Arnulf,9,1,10
2022.07.03,01:30,01:45,Arnulf,8,0,8
2022.07.03,01:45,02:00,Arnulf,8,1,9
2022.07.03,02:00,02:15,Arnulf,7,0,7
2022.07.03,02:15,02:30,Arnulf,11,1,12
2022.07.03,02:30,02:45,Arnulf,1,1,2
2022.07.03,02:45,03:00,Arnulf,2,0,2
2022.07.03,03:00,03:15,Arnulf,3,0,3
2022.07.03,03:15,03:30,Arnulf,0,0,0
2022.07.03,03:30,03:45,Arnulf,1,2,3
2022.07.03,03:45,04:00,Arnulf,0,2,2
2022.07.03,04:00,04:15,Arnulf,1,0,1
2022.07.03,04:15,04:30,Arnulf,4,0,4
2022.07.03,04:30,04:45,Arnulf,0,1,1
2022.07.03,04:45,05:00,Arnulf,0,0,0
2022.07.03,05:00,05:15,Arnulf,1,0,1
2022.07.03,05:15,05:30,Arnulf,6,1,7
2022.07.03,05:30,05:45,Arnulf,1,0,1
2022.07.03,05:45,06:00,Arnulf,8,0,8
2022.07.03,06:00,06:15,Arnulf,4,0,4
2022.07.03,06:15,06:30,Arnulf,9,0,9
2022.07.03,06:30,06:45,Arnulf,1,2,3
2022.07.03,06:45,07:00,Arnulf,11,0,11
2022.07.03,07:00,07:15,Arnulf,8,0,8
2022.07.03,07:15,07:30,Arnulf,13,0,13
2022.07.03,07:30,07:45,Arnulf,3,0,3
2022.07.03,07:45,08:00,Arnulf,9,0,9
2022.07.03,08:00,08:15,Arnulf,5,1,6
2022.07.03,08:15,08:30,Arnulf,8,0,8
2022.07.03,08:30,08:45,Arnulf,9,0,9
2022.07.03,08:45,09:00,Arnulf,6,1,7
2022.07.03,09:00,09:15,Arnulf,7,0,7
2022.07.03,09:15,09:30,Arnulf,9,0,9
2022.07.03,09:30,09:45,Arnulf,15,0,15
2022.07.03,09:45,10:00,Arnulf,15,0,15
2022.07.03,10:00,10:15,Arnulf,17,0,17
2022.07.03,10:15,10:30,Arnulf,11,0,11
2022.07.03,10:30,10:45,Arnulf,11,1,12
2022.07.03,10:45,11:00,Arnulf,7,0,7
2022.07.03,11:00,11:15,Arnulf,15,0,15
2022.07.03,11:15,11:30,Arnulf,20,1,21
2022.07.03,11:30,11:45,Arnulf,17,0,17
2022.07.03,11:45,12:00,Arnulf,20,1,21
2022.07.03,12:00,12:15,Arnulf,14,1,15
2022.07.03,12:15,12:30,Arnulf,12,0,12
2022.07.03,12:30,12:45,Arnulf,24,0,24
2022.07.03,12:45,13:00,Arnulf,13,0,13
2022.07.03,13:00,13:15,Arnulf,29,0,29
2022.07.03,13:15,13:30,Arnulf,15,3,18
2022.07.03,13:30,13:45,Arnulf,23,1,24
2022.07.03,13:45,14:00,Arnulf,31,0,31
2022.07.03,14:00,14:15,Arnulf,22,0,22
2022.07.03,14:15,14:30,Arnulf,23,0,23
2022.07.03,14:30,14:45,Arnulf,24,0,24
2022.07.03,14:45,15:00,Arnulf,27,0,27
2022.07.03,15:00,15:15,Arnulf,24,0,24
2022.07.03,15:15,15:30,Arnulf,17,0,17
2022.07.03,15:30,15:45,Arnulf,37,1,38
2022.07.03,15:45,16:00,Arnulf,38,1,39
2022.07.03,16:00,16:15,Arnulf,29,0,29
2022.07.03,16:15,16:30,Arnulf,21,1,22
2022.07.03,16:30,16:45,Arnulf,26,2,28
2022.07.03,16:45,17:00,Arnulf,16,2,18
2022.07.03,17:00,17:15,Arnulf,16,3,19
2022.07.03,17:15,17:30,Arnulf,22,1,23
2022.07.03,17:30,17:45,Arnulf,28,1,29
2022.07.03,17:45,18:00,Arnulf,28,1,29
2022.07.03,18:00,18:15,Arnulf,15,1,16
2022.07.03,18:15,18:30,Arnulf,14,0,14
2022.07.03,18:30,18:45,Arnulf,31,3,34
2022.07.03,18:45,19:00,Arnulf,30,1,31
2022.07.03,19:00,19:15,Arnulf,19,1,20
2022.07.03,19:15,19:30,Arnulf,16,1,17
2022.07.03,19:30,19:45,Arnulf,20,0,20
2022.07.03,19:45,20:00,Arnulf,20,0,20
2022.07.03,20:00,20:15,Arnulf,17,1,18
2022.07.03,20:15,20:30,Arnulf,23,0,23
2022.07.03,20:30,20:45,Arnulf,21,1,22
2022.07.03,20:45,21:00,Arnulf,16,3,19
2022.07.03,21:00,21:15,Arnulf,12,1,13
2022.07.03,21:15,21:30,Arnulf,26,0,26
2022.07.03,21:30,21:45,Arnulf,10,2,12
2022.07.03,21:45,22:00,Arnulf,20,0,20
2022.07.03,22:00,22:15,Arnulf,14,0,14
2022.07.03,22:15,22:30,Arnulf,15,0,15
2022.07.03,22:30,22:45,Arnulf,11,0,11
2022.07.03,22:45,23:00,Arnulf,7,0,7
2022.07.03,23:00,23:15,Arnulf,9,3,12
2022.07.03,23:15,23:30,Arnulf,5,2,7
2022.07.03,23:30,23:45,Arnulf,8,0,8
2022.07.03,23:45,00:00,Arnulf,2,0,2
2022.07.04,00:00,00:15,Arnulf,4,0,4
2022.07.04,00:15,00:30,Arnulf,2,1,3
2022.07.04,00:30,00:45,Arnulf,4,0,4
2022.07.04,00:45,01:00,Arnulf,4,0,4
2022.07.04,01:00,01:15,Arnulf,0,0,0
2022.07.04,01:15,01:30,Arnulf,1,0,1
2022.07.04,01:30,01:45,Arnulf,2,1,3
2022.07.04,01:45,02:00,Arnulf,2,0,2
2022.07.04,02:00,02:15,Arnulf,0,0,0
2022.07.04,02:15,02:30,Arnulf,1,0,1
2022.07.04,02:30,02:45,Arnulf,0,0,0
2022.07.04,02:45,03:00,Arnulf,4,0,4
2022.07.04,03:00,03:15,Arnulf,0,0,0
2022.07.04,03:15,03:30,Arnulf,0,0,0
2022.07.04,03:30,03:45,Arnulf,2,0,2
2022.07.04,03:45,04:00,Arnulf,1,0,1
2022.07.04,04:00,04:15,Arnulf,1,0,1
2022.07.04,04:15,04:30,Arnulf,1,0,1
2022.07.04,04:30,04:45,Arnulf,0,1,1
2022.07.04,04:45,05:00,Arnulf,0,1,1
2022.07.04,05:00,05:15,Arnulf,3,0,3
2022.07.04,05:15,05:30,Arnulf,0,1,1
2022.07.04,05:30,05:45,Arnulf,6,0,6
2022.07.04,05:45,06:00,Arnulf,3,0,3
2022.07.04,06:00,06:15,Arnulf,9,0,9
2022.07.04,06:15,06:30,Arnulf,2,3,5
2022.07.04,06:30,06:45,Arnulf,12,0,12
2022.07.04,06:45,07:00,Arnulf,20,1,21
2022.07.04,07:00,07:15,Arnulf,11,2,13
2022.07.04,07:15,07:30,Arnulf,19,0,19
2022.07.04,07:30,07:45,Arnulf,25,3,28
2022.07.04,07:45,08:00,Arnulf,38,2,40
2022.07.04,08:00,08:15,Arnulf,32,3,35
2022.07.04,08:15,08:30,Arnulf,47,0,47
2022.07.04,08:30,08:45,Arnulf,34,0,34
2022.07.04,08:45,09:00,Arnulf,25,1,26
2022.07.04,09:00,09:15,Arnulf,22,2,24
2022.07.04,09:15,09:30,Arnulf,15,2,17
2022.07.04,09:30,09:45,Arnulf,21,2,23
2022.07.04,09:45,10:00,Arnulf,22,1,23
2022.07.04,10:00,10:15,Arnulf,14,1,15
2022.07.04,10:15,10:30,Arnulf,8,0,8
2022.07.04,10:30,10:45,Arnulf,20,0,20
2022.07.04,10:45,11:00,Arnulf,18,1,19
2022.07.04,11:00,11:15,Arnulf,10,1,11
2022.07.04,11:15,11:30,Arnulf,11,0,11
2022.07.04,11:30,11:45,Arnulf,14,0,14
2022.07.04,11:45,12:00,Arnulf,18,2,20
2022.07.04,12:00,12:15,Arnulf,12,2,14
2022.07.04,12:15,12:30,Arnulf,20,0,20
2022.07.04,12:30,12:45,Arnulf,15,1,16
2022.07.04,12:45,13:00,Arnulf,31,3,34
2022.07.04,13:00,13:15,Arnulf,17,3,20
2022.07.04,13:15,13:30,Arnulf,16,3,19
2022.07.04,13:30,13:45,Arnulf,17,2,19
2022.07.04,13:45,14:00,Arnulf,23,2,25
2022.07.04,14:00,14:15,Arnulf,17,1,18
2022.07.04,14:15,14:30,Arnulf,17,0,17
2022.07.04,14:30,14:45,Arnulf,19,0,19
2022.07.04,14:45,15:00,Arnulf,20,1,21
2022.07.04,15:00,15:15,Arnulf,17,2,19
2022.07.04,15:15,15:30,Arnulf,18,4,22
2022.07.04,15:30,15:45,Arnulf,24,1,25
2022.07.04,15:45,16:00,Arnulf,20,3,23
2022.07.04,16:00,16:15,Arnulf,24,2,26
2022.07.04,16:15,16:30,Arnulf,14,3,17
2022.07.04,16:30,16:45,Arnulf,31,2,33
2022.07.04,16:45,17:00,Arnulf,35,1,36
2022.07.04,17:00,17:15,Arnulf,19,2,21
2022.07.04,17:15,17:30,Arnulf,23,1,24
2022.07.04,17:30,17:45,Arnulf,28,0,28
2022.07.04,17:45,18:00,Arnulf,39,2,41
2022.07.04,18:00,18:15,Arnulf,39,2,41
2022.07.04,18:15,18:30,Arnulf,38,1,39
2022.07.04,18:30,18:45,Arnulf,35,1,36
2022.07.04,18:45,19:00,Arnulf,44,1,45
2022.07.04,19:00,19:15,Arnulf,38,1,39
2022.07.04,19:15,19:30,Arnulf,26,2,28
2022.07.04,19:30,19:45,Arnulf,14,0,14
2022.07.04,19:45,20:00,Arnulf,25,2,27
2022.07.04,20:00,20:15,Arnulf,12,2,14
2022.07.04,20:15,20:30,Arnulf,20,2,22
2022.07.04,20:30,20:45,Arnulf,20,0,20
2022.07.04,20:45,21:00,Arnulf,6,1,7
2022.07.04,21:00,21:15,Arnulf,12,3,15
2022.07.04,21:15,21:30,Arnulf,7,1,8
2022.07.04,21:30,21:45,Arnulf,3,0,3
2022.07.04,21:45,22:00,Arnulf,5,1,6
2022.07.04,22:00,22:15,Arnulf,4,2,6
2022.07.04,22:15,22:30,Arnulf,5,1,6
2022.07.04,22:30,22:45,Arnulf,3,1,4
2022.07.04,22:45,23:00,Arnulf,7,1,8
2022.07.04,23:00,23:15,Arnulf,5,0,5
2022.07.04,23:15,23:30,Arnulf,1,0,1
2022.07.04,23:30,23:45,Arnulf,6,1,7
2022.07.04,23:45,00:00,Arnulf,1,0,1
2022.07.05,00:00,00:15,Arnulf,4,0,4
2022.07.05,00:15,00:30,Arnulf,1,0,1
2022.07.05,00:30,00:45,Arnulf,3,0,3
2022.07.05,00:45,01:00,Arnulf,1,0,1
2022.07.05,01:00,01:15,Arnulf,1,0,1
2022.07.05,01:15,01:30,Arnulf,2,0,2
2022.07.05,01:30,01:45,Arnulf,0,0,0
2022.07.05,01:45,02:00,Arnulf,0,1,1
2022.07.05,02:00,02:15,Arnulf,0,0,0
2022.07.05,02:15,02:30,Arnulf,0,0,0
2022.07.05,02:30,02:45,Arnulf,0,1,1
2022.07.05,02:45,03:00,Arnulf,0,0,0
2022.07.05,03:00,03:15,Arnulf,0,1,1
2022.07.05,03:15,03:30,Arnulf,2,0,2
2022.07.05,03:30,03:45,Arnulf,0,0,0
2022.07.05,03:45,04:00,Arnulf,0,0,0
2022.07.05,04:00,04:15,Arnulf,0,0,0
2022.07.05,04:15,04:30,Arnulf,0,0,0
2022.07.05,04:30,04:45,Arnulf,0,2,2
2022.07.05,04:45,05:00,Arnulf,1,1,2
2022.07.05,05:00,05:15,Arnulf,2,0,2
2022.07.05,05:15,05:30,Arnulf,2,0,2
2022.07.05,05:30,05:45,Arnulf,3,0,3
2022.07.05,05:45,06:00,Arnulf,5,0,5
2022.07.05,06:00,06:15,Arnulf,11,1,12
2022.07.05,06:15,06:30,Arnulf,8,2,10
2022.07.05,06:30,06:45,Arnulf,16,0,16
2022.07.05,06:45,07:00,Arnulf,19,3,22
2022.07.05,07:00,07:15,Arnulf,29,1,30
2022.07.05,07:15,07:30,Arnulf,40,1,41
2022.07.05,07:30,07:45,Arnulf,33,1,34
2022.07.05,07:45,08:00,Arnulf,61,1,62
2022.07.05,08:00,08:15,Arnulf,67,0,67
2022.07.05,08:15,08:30,Arnulf,80,1,81
2022.07.05,08:30,08:45,Arnulf,75,0,75
2022.07.05,08:45,09:00,Arnulf,68,0,68
2022.07.05,09:00,09:15,Arnulf,52,1,53
2022.07.05,09:15,09:30,Arnulf,39,0,39
2022.07.05,09:30,09:45,Arnulf,27,3,30
2022.07.05,09:45,10:00,Arnulf,17,1,18
2022.07.05,10:00,10:15,Arnulf,25,1,26
2022.07.05,10:15,10:30,Arnulf,17,0,17
2022.07.05,10:30,10:45,Arnulf,22,0,22
2022.07.05,10:45,11:00,Arnulf,21,0,21
2022.07.05,11:00,11:15,Arnulf,19,1,20
2022.07.05,11:15,11:30,Arnulf,32,0,32
2022.07.05,11:30,11:45,Arnulf,22,0,22
2022.07.05,11:45,12:00,Arnulf,20,1,21
2022.07.05,12:00,12:15,Arnulf,22,1,23
2022.07.05,12:15,12:30,Arnulf,20,3,23
2022.07.05,12:30,12:45,Arnulf,23,0,23
2022.07.05,12:45,13:00,Arnulf,21,1,22
2022.07.05,13:00,13:15,Arnulf,22,0,22
2022.07.05,13:15,13:30,Arnulf,29,1,30
2022.07.05,13:30,13:45,Arnulf,22,3,25
2022.07.05,13:45,14:00,Arnulf,17,0,17
2022.07.05,14:00,14:15,Arnulf,12,1,13
2022.07.05,14:15,14:30,Arnulf,15,1,16
2022.07.05,14:30,14:45,Arnulf,32,1,33
2022.07.05,14:45,15:00,Arnulf,26,1,27
2022.07.05,15:00,15:15,Arnulf,19,0,19
2022.07.05,15:15,15:30,Arnulf,24,3,27
2022.07.05,15:30,15:45,Arnulf,24,1,25
2022.07.05,15:45,16:00,Arnulf,24,1,25
2022.07.05,16:00,16:15,Arnulf,42,4,46
2022.07.05,16:15,16:30,Arnulf,33,2,35
2022.07.05,16:30,16:45,Arnulf,28,0,28
2022.07.05,16:45,17:00,Arnulf,43,5,48
2022.07.05,17:00,17:15,Arnulf,41,1,42
2022.07.05,17:15,17:30,Arnulf,52,1,53
2022.07.05,17:30,17:45,Arnulf,53,4,57
2022.07.05,17:45,18:00,Arnulf,50,3,53
2022.07.05,18:00,18:15,Arnulf,62,1,63
2022.07.05,18:15,18:30,Arnulf,64,1,65
2022.07.05,18:30,18:45,Arnulf,71,1,72
2022.07.05,18:45,19:00,Arnulf,59,1,60
2022.07.05,19:00,19:15,Arnulf,39,1,40
2022.07.05,19:15,19:30,Arnulf,36,1,37
2022.07.05,19:30,19:45,Arnulf,36,2,38
2022.07.05,19:45,20:00,Arnulf,20,2,22
2022.07.05,20:00,20:15,Arnulf,25,1,26
2022.07.05,20:15,20:30,Arnulf,20,0,20
2022.07.05,20:30,20:45,Arnulf,24,3,27
2022.07.05,20:45,21:00,Arnulf,19,0,19
2022.07.05,21:00,21:15,Arnulf,16,0,16
2022.07.05,21:15,21:30,Arnulf,12,0,12
2022.07.05,21:30,21:45,Arnulf,21,3,24
2022.07.05,21:45,22:00,Arnulf,19,1,20
2022.07.05,22:00,22:15,Arnulf,18,2,20
2022.07.05,22:15,22:30,Arnulf,23,0,23
2022.07.05,22:30,22:45,Arnulf,16,1,17
2022.07.05,22:45,23:00,Arnulf,12,2,14
2022.07.05,23:00,23:15,Arnulf,13,0,13
2022.07.05,23:15,23:30,Arnulf,2,2,4
2022.07.05,23:30,23:45,Arnulf,14,2,16
2022.07.05,23:45,00:00,Arnulf,14,0,14
2022.07.06,00:00,00:15,Arnulf,5,0,5
2022.07.06,00:15,00:30,Arnulf,2,1,3
2022.07.06,00:30,00:45,Arnulf,4,0,4
2022.07.06,00:45,01:00,Arnulf,1,0,1
2022.07.06,01:00,01:15,Arnulf,3,1,4
2022.07.06,01:15,01:30,Arnulf,0,0,0
2022.07.06,01:30,01:45,Arnulf,2,0,2
2022.07.06,01:45,02:00,Arnulf,0,0,0
2022.07.06,02:00,02:15,Arnulf,2,0,2
2022.07.06,02:15,02:30,Arnulf,2,0,2
2022.07.06,02:30,02:45,Arnulf,1,1,2
2022.07.06,02:45,03:00,Arnulf,0,0,0
2022.07.06,03:00,03:15,Arnulf,1,0,1
2022.07.06,03:15,03:30,Arnulf,0,0,0
2022.07.06,03:30,03:45,Arnulf,2,0,2
2022.07.06,03:45,04:00,Arnulf,2,0,2
2022.07.06,04:00,04:15,Arnulf,0,0,0
2022.07.06,04:15,04:30,Arnulf,0,2,2
2022.07.06,04:30,04:45,Arnulf,0,0,0
2022.07.06,04:45,05:00,Arnulf,0,1,1
2022.07.06,05:00,05:15,Arnulf,2,0,2
2022.07.06,05:15,05:30,Arnulf,3,0,3
2022.07.06,05:30,05:45,Arnulf,7,0,7
2022.07.06,05:45,06:00,Arnulf,6,0,6
2022.07.06,06:00,06:15,Arnulf,11,0,11
2022.07.06,06:15,06:30,Arnulf,8,2,10
2022.07.06,06:30,06:45,Arnulf,18,0,18
2022.07.06,06:45,07:00,Arnulf,18,1,19
2022.07.06,07:00,07:15,Arnulf,20,0,20
2022.07.06,07:15,07:30,Arnulf,40,0,40
2022.07.06,07:30,07:45,Arnulf,43,1,44
2022.07.06,07:45,08:00,Arnulf,64,1,65
2022.07.06,08:00,08:15,Arnulf,72,3,75
2022.07.06,08:15,08:30,Arnulf,92,1,93
2022.07.06,08:30,08:45,Arnulf,71,2,73
2022.07.06,08:45,09:00,Arnulf,79,0,79
2022.07.06,09:00,09:15,Arnulf,41,0,41
2022.07.06,09:15,09:30,Arnulf,20,3,23
2022.07.06,09:30,09:45,Arnulf,39,2,41
2022.07.06,09:45,10:00,Arnulf,32,1,33
2022.07.06,10:00,10:15,Arnulf,26,0,26
2022.07.06,10:15,10:30,Arnulf,21,0,21
2022.07.06,10:30,10:45,Arnulf,34,0,34
2022.07.06,10:45,11:00,Arnulf,24,1,25
2022.07.06,11:00,11:15,Arnulf,19,0,19
2022.07.06,11:15,11:30,Arnulf,16,0,16
2022.07.06,11:30,11:45,Arnulf,15,0,15
2022.07.06,11:45,12:00,Arnulf,28,0,28
2022.07.06,12:00,12:15,Arnulf,14,1,15
2022.07.06,12:15,12:30,Arnulf,23,0,23
2022.07.06,12:30,12:45,Arnulf,25,0,25
2022.07.06,12:45,13:00,Arnulf,27,1,28
2022.07.06,13:00,13:15,Arnulf,12,0,12
2022.07.06,13:15,13:30,Arnulf,20,1,21
2022.07.06,13:30,13:45,Arnulf,18,4,22
2022.07.06,13:45,14:00,Arnulf,24,1,25
2022.07.06,14:00,14:15,Arnulf,20,0,20
2022.07.06,14:15,14:30,Arnulf,19,4,23
2022.07.06,14:30,14:45,Arnulf,41,1,42
2022.07.06,14:45,15:00,Arnulf,20,1,21
2022.07.06,15:00,15:15,Arnulf,23,0,23
2022.07.06,15:15,15:30,Arnulf,28,4,32
2022.07.06,15:30,15:45,Arnulf,24,2,26
2022.07.06,15:45,16:00,Arnulf,24,4,28
2022.07.06,16:00,16:15,Arnulf,38,0,38
2022.07.06,16:15,16:30,Arnulf,22,1,23
2022.07.06,16:30,16:45,Arnulf,39,2,41
2022.07.06,16:45,17:00,Arnulf,33,2,35
2022.07.06,17:00,17:15,Arnulf,30,0,30
2022.07.06,17:15,17:30,Arnulf,57,3,60
2022.07.06,17:30,17:45,Arnulf,62,2,64
2022.07.06,17:45,18:00,Arnulf,69,4,73
2022.07.06,18:00,18:15,Arnulf,65,3,68
2022.07.06,18:15,18:30,Arnulf,68,3,71
2022.07.06,18:30,18:45,Arnulf,68,1,69
2022.07.06,18:45,19:00,Arnulf,59,4,63
2022.07.06,19:00,19:15,Arnulf,50,5,55
2022.07.06,19:15,19:30,Arnulf,45,0,45
2022.07.06,19:30,19:45,Arnulf,32,2,34
2022.07.06,19:45,20:00,Arnulf,32,0,32
2022.07.06,20:00,20:15,Arnulf,29,5,34
2022.07.06,20:15,20:30,Arnulf,25,1,26
2022.07.06,20:30,20:45,Arnulf,20,0,20
2022.07.06,20:45,21:00,Arnulf,15,1,16
2022.07.06,21:00,21:15,Arnulf,20,0,20
2022.07.06,21:15,21:30,Arnulf,32,0,32
2022.07.06,21:30,21:45,Arnulf,16,2,18
2022.07.06,21:45,22:00,Arnulf,20,0,20
2022.07.06,22:00,22:15,Arnulf,21,2,23
2022.07.06,22:15,22:30,Arnulf,11,1,12
2022.07.06,22:30,22:45,Arnulf,21,4,25
2022.07.06,22:45,23:00,Arnulf,17,4,21
2022.07.06,23:00,23:15,Arnulf,21,0,21
2022.07.06,23:15,23:30,Arnulf,14,0,14
2022.07.06,23:30,23:45,Arnulf,10,2,12
2022.07.06,23:45,00:00,Arnulf,5,1,6
2022.07.07,00:00,00:15,Arnulf,4,2,6
2022.07.07,00:15,00:30,Arnulf,7,0,7
2022.07.07,00:30,00:45,Arnulf,2,1,3
2022.07.07,00:45,01:00,Arnulf,5,0,5
2022.07.07,01:00,01:15,Arnulf,1,0,1
2022.07.07,01:15,01:30,Arnulf,1,0,1
2022.07.07,01:30,01:45,Arnulf,0,1,1
2022.07.07,01:45,02:00,Arnulf,0,0,0
2022.07.07,02:00,02:15,Arnulf,0,0,0
2022.07.07,02:15,02:30,Arnulf,0,0,0
2022.07.07,02:30,02:45,Arnulf,1,0,1
2022.07.07,02:45,03:00,Arnulf,1,0,1
2022.07.07,03:00,03:15,Arnulf,1,0,1
2022.07.07,03:15,03:30,Arnulf,1,0,1
2022.07.07,03:30,03:45,Arnulf,0,0,0
2022.07.07,03:45,04:00,Arnulf,1,0,1
2022.07.07,04:00,04:15,Arnulf,0,1,1
2022.07.07,04:15,04:30,Arnulf,2,1,3
2022.07.07,04:30,04:45,Arnulf,0,2,2
2022.07.07,04:45,05:00,Arnulf,0,1,1
2022.07.07,05:00,05:15,Arnulf,2,0,2
2022.07.07,05:15,05:30,Arnulf,4,0,4
2022.07.07,05:30,05:45,Arnulf,4,0,4
2022.07.07,05:45,06:00,Arnulf,8,0,8
2022.07.07,06:00,06:15,Arnulf,6,1,7
2022.07.07,06:15,06:30,Arnulf,1,3,4
2022.07.07,06:30,06:45,Arnulf,11,1,12
2022.07.07,06:45,07:00,Arnulf,18,0,18
2022.07.07,07:00,07:15,Arnulf,20,0,20
2022.07.07,07:15,07:30,Arnulf,29,1,30
2022.07.07,07:30,07:45,Arnulf,30,2,32
2022.07.07,07:45,08:00,Arnulf,49,1,50
2022.07.07,08:00,08:15,Arnulf,44,2,46
2022.07.07,08:15,08:30,Arnulf,55,1,56
2022.07.07,08:30,08:45,Arnulf,50,3,53
2022.07.07,08:45,09:00,Arnulf,53,1,54
2022.07.07,09:00,09:15,Arnulf,29,2,31
2022.07.07,09:15,09:30,Arnulf,33,3,36
2022.07.07,09:30,09:45,Arnulf,22,0,22
2022.07.07,09:45,10:00,Arnulf,19,3,22
2022.07.07,10:00,10:15,Arnulf,19,1,20
2022.07.07,10:15,10:30,Arnulf,20,0,20
2022.07.07,10:30,10:45,Arnulf,15,0,15
2022.07.07,10:45,11:00,Arnulf,17,0,17
2022.07.07,11:00,11:15,Arnulf,13,2,15
2022.07.07,11:15,11:30,Arnulf,18,0,18
2022.07.07,11:30,11:45,Arnulf,7,0,7
2022.07.07,11:45,12:00,Arnulf,24,1,25
2022.07.07,12:00,12:15,Arnulf,19,1,20